User: anonymous   Login
Location: Dayton
(39.7590°N, 84.1920°W)
Time: 04:09:47
(UTC-05:00)
Language:

Cosmos 1939 Rocket - Orbit

View from above orbital plane
View from above orbital plane
View from above satellite
View from above satellite

Ground track
Ground track

The orbit data is extracted from the following two-line orbital elements,

1 19046U 88032B   16036.49011898  .00001489  00000-0  11756-3 0  9992
2 19046  97.6015  89.6544 0036387 232.2672 127.5253 15.01723170497931
Epoch (UTC): 05 February 2016 11:45:46
Eccentricity: 0.0036387
inclination: 97.6015°
perigee height: 536 km
apogee height: 587 km
right ascension of ascending node: 89.6544°
argument of perigee: 232.2672°
revolutions per day: 15.01723170
mean anomaly at epoch: 127.5253°
orbit number at epoch: 49793

The dashed part of the orbit path shows where the satellite is in the earth's shadow,  

DLR